Location: Vale
(35.4830°N, 81.3830°W)
Time: 19:06:38
(UTC-05:00)

SR - All Passes

Search period start: 03 March 2015 00:00
Search period end: 13 March 2015 01:00
Orbit: 584 x 878 km, 66.7° (Epoch: 03 March)

Date Brightness Start Highest point End Pass type
(mag) Time Alt. Az. Time Alt. Az. Time Alt. Az.
03 Mar - 05:21:24 10° S 05:26:23 41° ESE 05:31:03 10° NE visible
03 Mar - 07:04:31 10° WSW 07:08:39 23° NW 07:12:26 10° N daylight
03 Mar - 14:07:21 10° NNE 14:09:10 13° NE 14:11:09 10° ENE daylight
03 Mar - 15:47:31 10° NW 15:51:40 55° WSW 15:55:53 10° SSE daylight
04 Mar - 04:34:07 10° SSE 04:37:47 20° ESE 04:41:26 10° ENE visible
04 Mar - 06:14:40 10° SW 06:19:43 45° WNW 06:24:23 10° NNE visible
04 Mar - 14:58:48 10° NNW 15:03:01 59° ENE 15:07:14 10° SE daylight
05 Mar - 05:25:38 10° SSW 05:30:58 87° ESE 05:35:53 10° NNE visible
05 Mar - 07:11:49 10° WNW 07:13:42 12° NW 07:15:17 10° NNW daylight
05 Mar - 14:10:35 10° N 14:14:09 26° NE 14:17:47 10° ESE daylight
05 Mar - 15:52:44 10° WNW 15:56:08 23° WSW 15:59:31 10° SSW daylight
06 Mar - 04:37:21 10° S 04:42:19 40° ESE 04:46:56 10° NE visible
06 Mar - 06:20:28 10° WSW 06:24:33 23° NW 06:28:19 10° N visible
06 Mar - 13:23:16 10° NNE 13:25:03 13° NE 13:27:01 10° ENE daylight
06 Mar - 15:03:24 10° NW 15:07:34 56° WSW 15:11:46 10° SSE daylight
07 Mar - 03:50:06 10° SSE 03:53:41 19° ESE 03:57:17 10° ENE visible
07 Mar - 05:30:36 10° SW 05:35:38 45° WNW 05:40:15 10° NNE visible
07 Mar - 14:14:41 10° NNW 14:18:53 59° ENE 14:23:07 10° SE daylight
08 Mar - 05:41:33 10° SSW 05:46:52 86° ESE 05:51:45 10° NNE visible
08 Mar - 07:27:44 10° WNW 07:29:35 12° NW 07:31:08 10° NNW daylight
08 Mar - 14:26:27 10° N 14:30:00 26° NE 14:33:38 10° ESE daylight
08 Mar - 16:08:35 10° WNW 16:12:01 23° WSW 16:15:24 10° SSW daylight
09 Mar - 04:53:17 10° S 04:58:11 40° ESE 05:02:47 10° NE visible
09 Mar - 06:36:22 10° WSW 06:40:25 23° NW 06:44:10 10° N visible
09 Mar - 13:39:10 10° NNE 13:40:54 12° NE 13:42:50 10° ENE daylight
09 Mar - 15:19:15 10° NW 15:23:25 57° WSW 15:27:39 10° SSE daylight
10 Mar - 04:06:02 10° SSE 04:09:33 19° ESE 04:13:06 10° ENE visible
10 Mar - 05:46:30 10° SW 05:51:30 45° WNW 05:56:06 10° NNE visible
10 Mar - 14:30:32 10° NNW 14:34:43 58° ENE 14:38:58 10° SE daylight
11 Mar - 04:57:26 10° SSW 05:02:43 86° ESE 05:07:33 10° NNE visible
11 Mar - 06:43:36 10° WNW 06:45:25 12° NW 06:46:58 10° NNW visible
11 Mar - 13:42:18 10° N 13:45:50 25° NE 13:49:27 10° ESE daylight
11 Mar - 15:24:23 10° NW 15:27:50 24° WSW 15:31:16 10° SSW daylight
12 Mar - 04:09:10 10° S 04:14:02 39° ESE 04:18:35 10° NE visible
12 Mar - 05:52:13 10° WSW 05:56:16 23° NW 05:59:59 10° N visible
12 Mar - 12:55:01 10° NNE 12:56:43 12° NE 12:58:37 10° ENE daylight
12 Mar - 14:35:04 10° NW 14:39:14 57° WSW 14:43:29 10° SSE daylight
